When you browse on this site, cookies collect data to enhance your experience and personalize the content and advertising you see.
Visit our Privacy Policy to learn more. By continuing to use the site, you agree to this use of cookies and data.
  • En España
  • Lista de países
  • Para 7 días
  • Temperatura del agua
  • El tiempo en el mapa
  • Informadores
  • user-avatar
    Iniciar sesión

    Tiempo cada hora La Ligua

    Hoy, 29 Enero, Miércoles

    Tiempo Temperatura Precipitaciones Viento Presión Humedad
    00:00 +15°C° 0 mm 0 mps 753 mmHg 96%
    01:00 +15°C° 0 mm 0 mps 753 mmHg 96%
    02:00 +16°C° 0 mm 1 mps 753 mmHg 96%
    03:00 +16°C° 0 mm 1 mps 753 mmHg 96%
    04:00 +18°C° 0 mm 1 mps 753 mmHg 96%
    05:00 +19°C° 0 mm 1 mps 753 mmHg 92%
    06:00 +20°C° 0 mm 1 mps 754 mmHg 87%
    07:00 +21°C° 0 mm 1 mps 754 mmHg 83%
    08:00 +23°C° 0 mm 2 mps 754 mmHg 74%
    09:00 +25°C° 0 mm 2 mps 754 mmHg 66%
    10:00 +26°C° 0 mm 3 mps 754 mmHg 57%
    11:00 +27°C° 0 mm 3 mps 754 mmHg 53%
    12:00 +28°C° 0 mm 4 mps 754 mmHg 49%
    13:00 +29°C° 0 mm 4 mps 753 mmHg 44%
    14:00 +28°C° 0 mm 4 mps 753 mmHg 45%
    15:00 +28°C° 0 mm 4 mps 754 mmHg 45%
    16:00 +27°C° 0 mm 3 mps 754 mmHg 45%
    17:00 +24°C° 0 mm 3 mps 754 mmHg 56%
    18:00 +20°C° 0 mm 2 mps 754 mmHg 68%
    19:00 +18°C° 0 mm 1 mps 755 mmHg 79%
    20:00 +18°C° 0 mm 1 mps 755 mmHg 81%
    21:00 +16°C° 0 mm 1 mps 755 mmHg 83%
    22:00 +15°C° 0 mm 1 mps 755 mmHg 85%
    23:00 +15°C° 0 mm 1 mps 755 mmHg 86%

    Mañana, 30 Enero, Jueves

    Tiempo Temperatura Precipitaciones Viento Presión Humedad
    00:00 +14°C° 0 mm 0 mps 754 mmHg 86%
    01:00 +14°C° 0 mm 0 mps 754 mmHg 87%
    02:00 +13°C° 0 mm 0 mps 754 mmHg 87%
    03:00 +13°C° 0 mm 0 mps 754 mmHg 87%
    04:00 +13°C° 0 mm 0 mps 753 mmHg 87%
    05:00 +16°C° 0 mm 1 mps 754 mmHg 78%
    06:00 +20°C° 0 mm 1 mps 754 mmHg 68%
    07:00 +23°C° 0 mm 1 mps 754 mmHg 58%
    08:00 +25°C° 0 mm 2 mps 754 mmHg 52%
    09:00 +28°C° 0 mm 2 mps 754 mmHg 45%
    10:00 +30°C° 0 mm 3 mps 754 mmHg 38%
    11:00 +30°C° 0 mm 3 mps 754 mmHg 37%
    12:00 +32°C° 0 mm 4 mps 754 mmHg 36%
    13:00 +33°C° 0 mm 4 mps 754 mmHg 35%
    14:00 +32°C° 0 mm 4 mps 754 mmHg 37%
    15:00 +30°C° 0 mm 3 mps 754 mmHg 39%
    16:00 +29°C° 0 mm 3 mps 754 mmHg 41%
    17:00 +26°C° 0 mm 2 mps 754 mmHg 54%
    18:00 +21°C° 0 mm 2 mps 754 mmHg 66%
    19:00 +19°C° 0 mm 1 mps 754 mmHg 79%
    20:00 +19°C° 0 mm 1 mps 754 mmHg 81%
    21:00 +18°C° 0 mm 1 mps 754 mmHg 83%
    22:00 +15°C° 0 mm 0 mps 755 mmHg 84%
    23:00 +15°C° 0 mm 0 mps 754 mmHg 85%

    Pasado mañana, 31 Enero, Viernes

    Tiempo Temperatura Precipitaciones Viento Presión Humedad
    00:00 +14°C° 0 mm 0 mps 754 mmHg 85%
    01:00 +14°C° 0 mm 0 mps 753 mmHg 86%
    02:00 +14°C° 0 mm 0 mps 753 mmHg 86%
    03:00 +14°C° 0 mm 0 mps 753 mmHg 86%
    04:00 +13°C° 0 mm 0 mps 753 mmHg 87%
    05:00 +16°C° 0 mm 0 mps 753 mmHg 77%
    06:00 +19°C° 0 mm 0 mps 753 mmHg 67%
    07:00 +22°C° 0 mm 0 mps 753 mmHg 57%
    08:00 +26°C° 0 mm 1 mps 753 mmHg 51%
    09:00 +29°C° 0 mm 2 mps 753 mmHg 44%
    10:00 +31°C° 0 mm 3 mps 753 mmHg 37%
    11:00 +32°C° 0 mm 4 mps 753 mmHg 36%
    12:00 +32°C° 0 mm 4 mps 753 mmHg 36%
    13:00 +33°C° 0 mm 4 mps 753 mmHg 35%
    14:00 +32°C° 0 mm 4 mps 753 mmHg 35%
    15:00 +30°C° 0 mm 3 mps 753 mmHg 35%
    16:00 +29°C° 0 mm 3 mps 753 mmHg 35%
    17:00 +26°C° 0 mm 2 mps 753 mmHg 49%
    18:00 +21°C° 0 mm 2 mps 753 mmHg 63%
    19:00 +19°C° 0 mm 1 mps 754 mmHg 77%
    20:00 +18°C° 0 mm 1 mps 754 mmHg 79%
    21:00 +15°C° 0 mm 0 mps 754 mmHg 82%
    22:00 +14°C° 0 mm 0 mps 754 mmHg 84%
    23:00 +14°C° 0 mm 0 mps 754 mmHg 84%

    1 Febrero, Sábado

    Tiempo Temperatura Precipitaciones Viento Presión Humedad
    00:00 +14°C° 0 mm 0 mps 753 mmHg 83%
    01:00 +14°C° 0 mm 0 mps 753 mmHg 83%
    02:00 +14°C° 0 mm 0 mps 753 mmHg 83%
    03:00 +13°C° 0 mm 0 mps 753 mmHg 84%
    04:00 +13°C° 0 mm 0 mps 753 mmHg 84%
    05:00 +16°C° 0 mm 0 mps 753 mmHg 75%
    06:00 +19°C° 0 mm 0 mps 753 mmHg 65%
    07:00 +23°C° 0 mm 1 mps 754 mmHg 56%
    08:00 +26°C° 0 mm 1 mps 754 mmHg 50%
    09:00 +28°C° 0 mm 2 mps 754 mmHg 44%
    10:00 +30°C° 0 mm 3 mps 754 mmHg 38%
    11:00 +30°C° 0 mm 3 mps 753 mmHg 37%
    12:00 +32°C° 0 mm 4 mps 753 mmHg 36%
    13:00 +32°C° 0 mm 4 mps 753 mmHg 35%
    14:00 +30°C° 0 mm 4 mps 753 mmHg 39%
    15:00 +30°C° 0 mm 4 mps 753 mmHg 42%
    16:00 +29°C° 0 mm 4 mps 753 mmHg 45%
    17:00 +25°C° 0 mm 3 mps 753 mmHg 59%
    18:00 +21°C° 0 mm 2 mps 753 mmHg 74%
    19:00 +18°C° 0 mm 1 mps 754 mmHg 88%
    20:00 +18°C° 0 mm 1 mps 753 mmHg 89%
    21:00 +16°C° 0 mm 1 mps 753 mmHg 89%
    22:00 +16°C° 0 mm 1 mps 753 mmHg 89%
    23:00 +15°C° 0 mm 1 mps 753 mmHg 89%

    2 Febrero, Domingo

    Tiempo Temperatura Precipitaciones Viento Presión Humedad
    00:00 +14°C° 0 mm 0 mps 752 mmHg 89%
    01:00 +14°C° 0 mm 0 mps 752 mmHg 88%
    02:00 +14°C° 0 mm 0 mps 752 mmHg 88%
    03:00 +14°C° 0 mm 0 mps 752 mmHg 88%
    04:00 +14°C° 0 mm 0 mps 752 mmHg 88%
    05:00 +16°C° 0 mm 0 mps 752 mmHg 78%
    06:00 +21°C° 0 mm 1 mps 752 mmHg 69%
    07:00 +24°C° 0 mm 1 mps 753 mmHg 60%
    08:00 +26°C° 0 mm 2 mps 753 mmHg 55%
    09:00 +28°C° 0 mm 3 mps 753 mmHg 49%
    10:00 +30°C° 0 mm 4 mps 753 mmHg 43%
    11:00 +30°C° 0 mm 4 mps 753 mmHg 43%
    12:00 +30°C° 0 mm 4 mps 753 mmHg 42%
    13:00 +30°C° 0 mm 4 mps 753 mmHg 41%
    14:00 +30°C° 0 mm 4 mps 753 mmHg 43%
    15:00 +29°C° 0 mm 4 mps 753 mmHg 46%
    16:00 +28°C° 0 mm 3 mps 753 mmHg 49%
    17:00 +25°C° 0 mm 3 mps 754 mmHg 62%
    18:00 +21°C° 0 mm 2 mps 754 mmHg 75%
    19:00 +19°C° 0 mm 1 mps 755 mmHg 89%
    20:00 +18°C° 0 mm 1 mps 755 mmHg 91%
    21:00 +16°C° 0 mm 1 mps 755 mmHg 93%
    22:00 +14°C° 0 mm 0 mps 755 mmHg 95%
    23:00 +14°C° 0 mm 0 mps 755 mmHg 95%

    3 Febrero, Lunes

    Tiempo Temperatura Precipitaciones Viento Presión Humedad
    00:00 +14°C° 0 mm 0 mps 754 mmHg 96%
    01:00 +13°C° 0 mm 0 mps 754 mmHg 96%
    02:00 +13°C° 0 mm 0 mps 754 mmHg 96%
    03:00 +13°C° 0 mm 0 mps 754 mmHg 96%
    04:00 +13°C° 0 mm 0 mps 754 mmHg 96%
    05:00 +15°C° 0 mm 0 mps 754 mmHg 88%
    06:00 +18°C° 0 mm 0 mps 754 mmHg 81%
    07:00 +20°C° 0 mm 0 mps 755 mmHg 73%
    08:00 +25°C° 0 mm 1 mps 755 mmHg 62%
    09:00 +27°C° 0 mm 2 mps 754 mmHg 52%
    10:00 +29°C° 0 mm 3 mps 754 mmHg 41%
    11:00 +29°C° 0 mm 4 mps 754 mmHg 39%
    12:00 +30°C° 0 mm 4 mps 754 mmHg 38%
    13:00 +30°C° 0 mm 4 mps 754 mmHg 36%
    14:00 +29°C° 0 mm 4 mps 754 mmHg 39%
    15:00 +28°C° 0 mm 4 mps 754 mmHg 42%
    16:00 +28°C° 0 mm 4 mps 754 mmHg 44%
    17:00 +25°C° 0 mm 3 mps 754 mmHg 56%
    18:00 +21°C° 0 mm 2 mps 755 mmHg 68%
    19:00 +19°C° 0 mm 1 mps 755 mmHg 80%
    20:00 +18°C° 0 mm 1 mps 755 mmHg 83%
    21:00 +16°C° 0 mm 1 mps 755 mmHg 86%
    22:00 +14°C° 0 mm 1 mps 755 mmHg 89%
    23:00 +14°C° 0 mm 1 mps 755 mmHg 90%
    Mostrar más